Regional Weather Roundup
Issued by NWS

Home | Current Version | Previous Version | Graphics & Text | Print | Product List | Glossary On
Versions: 1 2 3 4 5 6 7 8 9 10 11 12 13 14 15 16 17 18 19 20 21 22 23 24 25 26 27 28 29 30 31 32 33 34 35 36 37 38 39 40 41 42 43 44 45 46 47 48 49 50
000
ASUS43 KDMX 060407
RWRIA

WEATHER ROUNDUP FOR IOWA
NATIONAL WEATHER SERVICE DES MOINES IA
1100 PM CDT TUE MAY 05 2015

NOTE: "FAIR" INDICATES FEW OR NO CLOUDS BELOW 12,000 FEET WITH NO
SIGNIFICANT WEATHER AND/OR OBSTRUCTIONS TO VISIBILITY.

* - THESE STATIONS ARE NOT NWS STATIONS...THUS NOT UNDER NWS
QUALITY CONTROL.  THEY ALSO DO NOT REPORT WEATHER SUCH
AS PRECIPITATION OR FOG.

IAZ001>003-012>014-020>022-031>034-043>046-060500-
   NORTHWEST IOWA

CITY           SKY/WX    TMP DP  RH WIND       PRES   REMARKS
CARROLL *      CLOUDY    64  64 100 E10       30.04S FOG
CHEROKEE *     CLOUDY    63  63 100 E10       30.02S
DENISON *      CLEAR     64  63  94 SE8       30.00S
LE MARS *      PTCLDY    66  63  88 E8G17     30.00S
ORANGE CITY *  CLOUDY    61  61 100 SE12G17   30.01S FOG
SHELDON *      FOG       61  61 100 SE18      30.02R VSB 1/2
SIOUX CITY     CLOUDY    66  57  72 SE10      29.97S
SPENCER        FOG       59  32  36 E15       30.05S VSB 1/2
STORM LAKE *   FOG       63  63 100 SE15G22   30.05R VSB 3/4
$$

IAZ055>058-069>071-079>083-090>094-060500-
   SOUTHWEST IOWA

CITY           SKY/WX    TMP DP  RH WIND       PRES   REMARKS
ATLANTIC *     PTCLDY    68  57  68 SE8       30.02S
AUDUBON *      CLEAR     63  57  82 SE5       30.04F
CLARINDA *     CLOUDY    66  61  82 S5        30.04F
COUNCIL BLFS * PTCLDY    68  61  77 S17       29.99F
CRESTON *      CLEAR     64  59  82 SE9       30.06S
HARLAN  *      MOCLDY    66  64  94 SE6       30.04F
LAMONI         CLOUDY    70  57  63 SE10      30.06S
RED OAK *      CLOUDY    66  59  77 S8        30.02S
SHENANDOAH *   CLOUDY    66  61  82 SE13      30.02S
$$

IAZ047>049-059>061-072>074-084-060500-
   CENTRAL IOWA

CITY           SKY/WX    TMP DP  RH WIND       PRES   REMARKS
AMES           CLOUDY    65  62  90 E13       30.07F FOG
ANKENY *       PTCLDY    66  66 100 E12       30.06F FOG
CHARITON *     MOCLDY    68  59  73 SE8       30.07S
DES MOINES     CLOUDY    69  62  78 E10       30.06R
GRINNELL*      CLOUDY    64  63  94 E16G22    30.10F FOG
KNOXVILLE *    CLOUDY    68  64  88 E9        30.07S FOG
MARSHALLTOWN   FOG       61  61 100 E16       30.10S VSB 1/2
PELLA *          N/A     66  66 100 E7        30.09S FOG
PERRY *          N/A     64  64 100 E12       30.05S FOG
$$

IAZ004>006-015-016-023>025-035-036-060500-
   NORTH CENTRAL IOWA

CITY           SKY/WX    TMP DP  RH WIND       PRES   REMARKS
ALGONA *       FOG       59  59 100 SE20      30.08F VSB 1/4
CLARION *      FOG       59  59 100 SE18G25   30.08F VSB 1/4
ESTHERVILLE    FOG       55  55 100 E14       30.07F VSB 1/4
FORT DODGE *   CLOUDY    61  57  88 SE14      30.08S VSB 1
MASON CITY     FOG       55  55 100 SE15      30.14R VSB 1/4
FOREST CITY *  FOG       54  54 100 E12G18    30.12S VSB 1/4
IOWA FALLS *   FOG       59  59 100 E13       30.12S VSB 1/4
$$

IAZ007>011-017>019-026>030-037>042-050>054-066-060500-
   NORTHEAST IOWA

CITY           SKY/WX    TMP DP  RH WIND       PRES   REMARKS
CEDAR RAPIDS   CLOUDY    58  58 100 E13       30.13S FOG
CHARLES CITY * FOG       55  55 100 SE13      30.15S VSB 1/4
CLINTON *      PTCLDY    55  54  94 E12       30.20R
DECORAH *      CLOUDY    54  54 100 SE10      30.16F FOG
DUBUQUE        CLOUDY    53  52  96 SE9       30.18S FOG
MONTICELLO *   CLOUDY    57  57 100 E9G17     30.16S FOG
OELWEIN *      CLOUDY    55  55 100 E15G22    30.15F FOG
WATERLOO       CLOUDY    57  56  96 E12       30.13S FOG
$$

IAZ064-065-067-068-078-060500-
   EAST CENTRAL IOWA

CITY           SKY/WX    TMP DP  RH WIND       PRES   REMARKS
DAVENPORT      CLOUDY    59  56  89 E13       30.16S FOG
IOWA CITY      CLOUDY    62  60  93 E9        30.15S FOG
MT. PLEASANT * MOCLDY    66  66 100 E10       30.12F
MUSCATINE *    CLOUDY    64  61  88 E8        30.15R FOG
QUAD CITIES    CLOUDY    61  58  90 E12       30.15S FOG
$$

IAZ062-063-075>077-085>089-095>099-060500-
   SOUTHEAST IOWA

CITY           SKY/WX    TMP DP  RH WIND       PRES   REMARKS
BURLINGTON     MOCLDY    69  66  90 E9        30.12S FOG
FAIRFIELD *    PTCLDY    68  64  88 E10       30.11R
FORT MADISON * CLEAR     68  64  88 E6        30.13R
KEOKUK *       MOCLDY    72  59  64 SE3       30.10S
OSKALOOSA *    CLOUDY    66  64  94 E14       30.10S FOG
CENTERVILLE *  CLEAR     66  63  88 SE5       30.10S
OTTUMWA        CLOUDY    67  66  97 E10       30.09S FOG
WASHINGTON *   CLOUDY    66  59  77 E14       30.12S HAZE
$$

ABBREVIATIONS USED IN REMARKS
   TC - TEMPERATURES IN CELSIUS
  WCI - WIND CHILL INDEX
   HX - HEAT INDEX
  VSB - VISIBILITY
$$




USA.gov is the U.S. government's official web portal to all federal, state and local government web resources and services.